[[{"header":{"parameterUnit":"m.s-1","parameterCategory":1,"la1":30.2991,"la2":30.254,"lo1":-89.0895,"lo2":-89.0444,"dy":0.0017,"dx":0.0017,"nx":28,"ny":28,"refTime":"2024-12-01T09:00:00:Z","depth":0,"parameterNumber":2,"parameterNumberName":"U-component_of_WINDS"},"data":[0,0,0,0,0,0,0,0,0,0,0,0,0,0,0,0,0,0,0,0,0,0,0,0,0,0,0,0,0,0,0,0,0,0,0,0,0,0,0,0,0,0,0,0,0,0,0,0,0,0,0,0,0,0,0,0,0,0,0.3584,0.3584,0,0.3622,0.3622,0.3623,0.366,0.366,0.3661,0.3661,0.37,0.3701,0.3701,0,0,0,0,0,0,0,0,0,0,0,0,0,0.3545,0.3545,0.3584,0.3584,0.3585,0.3622,0.3622,0.3623,0.3659,0.366,0.3661,0.3661,0.37,0.3701,0.3701,0,0,0,0,0,0,0,0,0,0,0,0,0,0.357,0.3545,0.3584,0.3608,0.361,0.3622,0.3622,0.3623,0.3659,0.366,0.3661,0.3661,0.37,0.3701,0.3701,0.3693,0,0,0.3704,0.3705,0,0,0,0,0,0,0,0,0.3568,0.3571,0.3604,0.3606,0.3609,0.3637,0.3623,0.3646,0.3659,0.3641,0.3661,0.3662,0.3678,0.3681,0.3687,0.3694,0.3696,0.3704,0.3705,0.3705,0.3705,0,0,0,0,0,0,0,0.3567,0.357,0.3599,0.3604,0.3607,0.3617,0.3621,0.3627,0.3655,0.3642,0.3645,0.3649,0.368,0.3686,0.3688,0.3697,0.3704,0.3705,0.3706,0.3706,0.3699,0.3698,0,0,0,0,0,0,0.3561,0.3568,0.3598,0.36,0.359,0.3617,0.3622,0.3627,0.3655,0.366,0.3648,0.3651,0.3684,0.3687,0.3689,0.3681,0.3705,0.3706,0.3706,0.37,0.3699,0.3698,0,0,0,0,0,0,0.356,0.3563,0.3596,0.3585,0.359,0.3617,0.3622,0.3627,0.3633,0.366,0.3665,0.3649,0.3685,0.3688,0.3691,0.3682,0.3706,0.3707,0.3701,0.37,0.3699,0.3663,0,0,0,0,0,0,0.3559,0.3563,0.3559,0.3585,0.359,0.3597,0.3622,0.3628,0.3635,0.3638,0.3662,0.3666,0.3685,0.369,0.3692,0.3684,0.3708,0.3702,0.37,0.3699,0.3665,0.3661,0.3657,0,0,0,0,0,0.3557,0.3548,0.3559,0.3562,0.3587,0.3597,0.36,0.3622,0.3634,0.3631,0.3648,0.3666,0.3683,0.369,0.3693,0.3685,0.3702,0.3701,0.3699,0.3667,0.3662,0.3657,0,0,0,0,0,0,0.3521,0.3552,0.3564,0.3563,0.3577,0.3603,0.36,0.3616,0.3627,0.3629,0.3657,0.3662,0.3662,0.3674,0.3681,0.3678,0.3695,0.3694,0.367,0.3665,0.3661,0.3658,0.3709,0,0,0,0,0,0.3513,0.3519,0.3545,0.3541,0.3548,0.3572,0.3578,0.3593,0.3609,0.3615,0.3633,0.3647,0.3656,0.3661,0.3671,0.3667,0.3673,0.3663,0.3659,0.3656,0.3654,0.3653,0.3649,0.3693,0.3693,0.3693,0,0,0.3496,0.3514,0.3515,0.3534,0.3547,0.3552,0.3577,0.3582,0.3586,0.3616,0.362,0.3633,0.3652,0.3651,0.3652,0.3661,0.3644,0.3654,0.3651,0.3651,0.3651,0.3647,0.3643,0.3692,0.3692,0.3692,0,0,0.3468,0.3482,0.348,0.3492,0.3511,0.3528,0.3528,0.3551,0.3561,0.3566,0.3589,0.3594,0.3609,0.3621,0.3629,0.3606,0.3623,0.3609,0.3588,0.3586,0.3583,0.358,0.3571,0.3568,0.3607,0.3607,0.3607,0,0.3445,0.3453,0.3477,0.348,0.3488,0.3516,0.3514,0.3525,0.3546,0.3551,0.3561,0.358,0.3595,0.3597,0.3592,0.3598,0.3598,0.3605,0.3581,0.3578,0.3576,0.3568,0.3565,0.3605,0.3605,0.3606,0.3606,0,0.3423,0.3429,0.3425,0.3445,0.3452,0.3453,0.3477,0.3482,0.3497,0.3513,0.3517,0.3536,0.3549,0.3551,0.3567,0.3556,0.3561,0.3576,0.3594,0.357,0.3562,0.356,0.3603,0.3603,0.3604,0.3604,0,0,0.3372,0.3406,0.3404,0.3413,0.3436,0.3441,0.3443,0.3457,0.346,0.3474,0.3477,0.3489,0.3503,0.3512,0.3529,0.3527,0.3507,0.3542,0.3543,0.3534,0.3497,0.3485,0.3481,0.3519,0.3519,0.3518,0.3495,0,0.3347,0.3353,0.3375,0.3373,0.3379,0.3406,0.3408,0.3422,0.3437,0.3444,0.3461,0.3469,0.3487,0.3492,0.3492,0.351,0.35,0.3512,0.3521,0.3521,0.3515,0.3477,0.3465,0.3442,0.3493,0.3492,0.3492,0,0.3319,0.3331,0.333,0.3353,0.3356,0.3358,0.3372,0.3378,0.3396,0.3407,0.3417,0.3436,0.344,0.3457,0.3463,0.3471,0.3476,0.3485,0.3485,0.3486,0.3504,0.3477,0.3435,0.3432,0.3488,0.3488,0.3488,0,0.3281,0.3297,0.3298,0.3306,0.3333,0.3333,0.3345,0.3363,0.337,0.3382,0.3387,0.34,0.3407,0.3417,0.3439,0.3449,0.3442,0.3461,0.3451,0.345,0.3447,0.3447,0.3405,0.3452,0.3452,0.3452,0.3452,0,0.325,0.3248,0.3282,0.3282,0.3281,0.3307,0.3305,0.332,0.3336,0.334,0.3364,0.3368,0.3397,0.3404,0.3422,0.3423,0.3427,0.3436,0.344,0.3433,0.3431,0.3436,0.3438,0.3451,0.3451,0.3452,0.3452,0,0.3207,0.3229,0.3233,0.3259,0.3265,0.3263,0.3285,0.3287,0.3304,0.3309,0.3312,0.3338,0.3347,0.3371,0.3386,0.3398,0.3395,0.3404,0.3389,0.3392,0.338,0.338,0.3339,0.3335,0.3384,0.3384,0.3384,0,0.3186,0.3185,0.3211,0.3215,0.3226,0.3233,0.324,0.3265,0.3272,0.3292,0.3291,0.3302,0.3313,0.3327,0.3347,0.3359,0.3368,0.3353,0.337,0.3363,0.3367,0.3366,0.3366,0.3349,0.3348,0.3347,0.3347,0,0.3145,0.3156,0.3165,0.3178,0.3186,0.3197,0.321,0.3212,0.3241,0.3247,0.3257,0.3265,0.3281,0.3292,0.3307,0.332,0.3338,0.3342,0.334,0.3332,0.3323,0.3327,0.3378,0.3342,0.3343,0.3343,0.3343,0.3343,0.3111,0.3112,0.313,0.3139,0.3152,0.3163,0.3166,0.3184,0.3192,0.3207,0.3222,0.323,0.3248,0.3271,0.3282,0.3289,0.3298,0.3296,0.3295,0.3293,0.329,0.3322,0.3292,0.3292,0.3292,0.3292,0.3292,0,0.3071,0.3084,0.3093,0.311,0.3117,0.3134,0.315,0.3155,0.3162,0.3177,0.3186,0.3198,0.3209,0.323,0.3243,0.3244,0.3253,0.3247,0.3247,0.3249,0.3281,0.3281,0.324,0.324,0.324,0.324,0.324,0.324,0.3051,0.3053,0.3066,0.3074,0.3088,0.3096,0.3103,0.3114,0.3126,0.3138,0.3147,0.3161,0.3179,0.3193,0.3204,0.321,0.3213,0.3204,0.3212,0.3242,0.3247,0.3251,0.3252,0.3205,0.3204,0.318,0.318,0.3179]},{"header":{"parameterUnit":"m.s-1","parameterCategory":1,"la1":30.2991,"la2":30.254,"lo1":-89.0895,"lo2":-89.0444,"dy":0.0017,"dx":0.0017,"nx":28,"ny":28,"refTime":"2024-12-01T09:00:00:Z","depth":0,"parameterNumber":3,"parameterNumberName":"V-component_of_WINDS"},"data":[0,0,0,0,0,0,0,0,0,0,0,0,0,0,0,0,0,0,0,0,0,0,0,0,0,0,0,0,0,0,0,0,0,0,0,0,0,0,0,0,0,0,0,0,0,0,0,0,0,0,0,0,0,0,0,0,0,0,-0.7567,-0.7567,0,-0.7601,-0.7601,-0.7601,-0.7622,-0.7622,-0.7623,-0.7623,-0.7657,-0.7657,-0.7658,0,0,0,0,0,0,0,0,0,0,0,0,0,-0.7522,-0.7522,-0.7567,-0.7567,-0.7568,-0.76,-0.7601,-0.7601,-0.7622,-0.7622,-0.7623,-0.7623,-0.7656,-0.7657,-0.7658,0,0,0,0,0,0,0,0,0,0,0,0,0,-0.7547,-0.7523,-0.7567,-0.7582,-0.7584,-0.76,-0.7601,-0.7602,-0.7622,-0.7622,-0.7623,-0.7623,-0.7656,-0.7657,-0.7658,-0.7662,0,0,-0.7662,-0.7662,0,0,0,0,0,0,0,0,-0.7545,-0.7549,-0.7579,-0.7581,-0.7583,-0.7607,-0.7598,-0.7622,-0.7622,-0.7608,-0.7623,-0.7623,-0.764,-0.7643,-0.7648,-0.7664,-0.7665,-0.7662,-0.7663,-0.7663,-0.7664,0,0,0,0,0,0,0,-0.7544,-0.7547,-0.758,-0.758,-0.7582,-0.7588,-0.7591,-0.7602,-0.7622,-0.7609,-0.7611,-0.7614,-0.7641,-0.7647,-0.7649,-0.7666,-0.7662,-0.7663,-0.7664,-0.7664,-0.7689,-0.7688,0,0,0,0,0,0,-0.754,-0.7546,-0.7579,-0.7581,-0.7564,-0.7588,-0.7593,-0.7599,-0.7622,-0.7626,-0.7614,-0.7615,-0.7645,-0.7648,-0.7651,-0.7659,-0.7663,-0.7664,-0.7665,-0.7689,-0.7689,-0.7688,0,0,0,0,0,0,-0.7538,-0.7542,-0.7578,-0.7564,-0.7569,-0.7589,-0.7596,-0.76,-0.7606,-0.7626,-0.763,-0.7617,-0.7645,-0.7649,-0.766,-0.766,-0.7665,-0.7666,-0.7689,-0.7689,-0.7688,-0.7673,0,0,0,0,0,0,-0.7537,-0.7542,-0.7543,-0.7564,-0.7569,-0.7586,-0.7596,-0.7601,-0.7608,-0.761,-0.763,-0.7633,-0.7646,-0.7658,-0.7661,-0.7662,-0.7667,-0.7689,-0.7689,-0.7689,-0.7673,-0.7672,-0.7671,0,0,0,0,0,-0.7535,-0.7536,-0.7543,-0.7547,-0.7571,-0.7586,-0.7589,-0.7604,-0.7608,-0.761,-0.7623,-0.7632,-0.7659,-0.7659,-0.7662,-0.7663,-0.7689,-0.7689,-0.7689,-0.7674,-0.7672,-0.7671,0,0,0,0,0,0,-0.7514,-0.7539,-0.7547,-0.7554,-0.7568,-0.7589,-0.7592,-0.7601,-0.7613,-0.7615,-0.7632,-0.7637,-0.7646,-0.7656,-0.7655,-0.767,-0.7675,-0.7676,-0.7663,-0.7662,-0.7661,-0.7658,-0.7668,0,0,0,0,0,-0.7511,-0.752,-0.7541,-0.7546,-0.7553,-0.7571,-0.7578,-0.7588,-0.7603,-0.7609,-0.7622,-0.7636,-0.7648,-0.7655,-0.7667,-0.7675,-0.7681,-0.7678,-0.7677,-0.7676,-0.7676,-0.7683,-0.7683,-0.7688,-0.7688,-0.7688,0,0,-0.7503,-0.7518,-0.7522,-0.7543,-0.7554,-0.7564,-0.7576,-0.7585,-0.7593,-0.761,-0.7622,-0.7632,-0.7649,-0.7659,-0.7664,-0.7667,-0.7676,-0.7675,-0.7674,-0.7675,-0.7683,-0.7682,-0.7682,-0.7688,-0.7688,-0.7688,0,0,-0.7494,-0.7506,-0.7512,-0.7524,-0.7542,-0.7555,-0.7556,-0.7577,-0.7585,-0.7597,-0.7611,-0.7621,-0.764,-0.7652,-0.7661,-0.7659,-0.7669,-0.7663,-0.7657,-0.7664,-0.7663,-0.7663,-0.7664,-0.7664,-0.7663,-0.7663,-0.7663,0,-0.7482,-0.7498,-0.7514,-0.7524,-0.7533,-0.755,-0.7557,-0.7568,-0.7588,-0.7595,-0.7598,-0.7625,-0.7637,-0.7651,-0.7651,-0.7657,-0.766,-0.766,-0.7662,-0.7662,-0.7662,-0.7663,-0.7663,-0.7662,-0.7662,-0.7662,-0.7662,0,-0.7483,-0.7494,-0.7497,-0.7518,-0.7528,-0.7536,-0.7554,-0.7562,-0.7572,-0.7585,-0.7598,-0.7614,-0.763,-0.7634,-0.7643,-0.765,-0.7652,-0.7658,-0.7665,-0.766,-0.7662,-0.7662,-0.7661,-0.7661,-0.7662,-0.7662,0,0,-0.7461,-0.7493,-0.7494,-0.7504,-0.7527,-0.7535,-0.7545,-0.7562,-0.7569,-0.7583,-0.7593,-0.761,-0.7617,-0.7627,-0.7638,-0.7644,-0.7644,-0.765,-0.7651,-0.7649,-0.7655,-0.7651,-0.7651,-0.7651,-0.7651,-0.7651,-0.7654,0,-0.7457,-0.7476,-0.7492,-0.7505,-0.7516,-0.7533,-0.7542,-0.7557,-0.757,-0.7582,-0.7595,-0.7608,-0.7615,-0.7622,-0.7628,-0.7643,-0.7646,-0.7643,-0.7661,-0.7661,-0.7657,-0.7651,-0.7646,-0.7648,-0.7654,-0.7655,-0.7655,0,-0.7454,-0.7469,-0.7484,-0.7507,-0.7512,-0.752,-0.7538,-0.7548,-0.7566,-0.7575,-0.7587,-0.76,-0.7612,-0.7617,-0.7635,-0.7633,-0.7641,-0.765,-0.765,-0.7653,-0.7658,-0.7655,-0.7649,-0.765,-0.7655,-0.7655,-0.7655,0,-0.7439,-0.7462,-0.7475,-0.7483,-0.751,-0.7515,-0.7527,-0.7545,-0.7555,-0.757,-0.7577,-0.7594,-0.7603,-0.7616,-0.7633,-0.7635,-0.765,-0.7656,-0.7658,-0.7658,-0.7661,-0.7661,-0.7657,-0.7665,-0.7665,-0.7665,-0.7665,0,-0.7433,-0.7442,-0.7469,-0.7476,-0.7487,-0.7506,-0.7516,-0.7529,-0.7545,-0.7557,-0.7572,-0.7582,-0.7603,-0.7616,-0.763,-0.7644,-0.7647,-0.7655,-0.7659,-0.7655,-0.7654,-0.7661,-0.7661,-0.7665,-0.7665,-0.7665,-0.7665,0,-0.7417,-0.7436,-0.7451,-0.7476,-0.7482,-0.7489,-0.7511,-0.7519,-0.7533,-0.7547,-0.7552,-0.7574,-0.759,-0.7608,-0.763,-0.7639,-0.7653,-0.7657,-0.7647,-0.7649,-0.7651,-0.7651,-0.7653,-0.7655,-0.766,-0.766,-0.766,0,-0.7413,-0.742,-0.7446,-0.7455,-0.7467,-0.748,-0.7491,-0.751,-0.7521,-0.7543,-0.755,-0.7567,-0.7582,-0.7608,-0.7626,-0.7644,-0.7649,-0.7649,-0.7652,-0.7648,-0.7651,-0.7651,-0.7652,-0.7648,-0.7648,-0.7648,-0.7647,0,-0.7404,-0.7413,-0.7427,-0.7446,-0.7458,-0.7474,-0.749,-0.7496,-0.7519,-0.753,-0.7547,-0.7559,-0.7583,-0.7601,-0.7621,-0.7633,-0.7645,-0.7646,-0.7648,-0.7644,-0.7638,-0.7643,-0.7645,-0.7646,-0.7646,-0.7646,-0.7647,-0.7647,-0.7394,-0.7403,-0.7423,-0.7439,-0.7454,-0.7469,-0.7479,-0.7495,-0.751,-0.7531,-0.7541,-0.7559,-0.7579,-0.7607,-0.7619,-0.7634,-0.7637,-0.764,-0.764,-0.7641,-0.764,-0.7636,-0.7637,-0.7638,-0.7638,-0.7638,-0.7638,0,-0.7387,-0.7402,-0.7417,-0.7439,-0.7453,-0.7463,-0.7481,-0.7492,-0.7507,-0.7525,-0.754,-0.7561,-0.7579,-0.7599,-0.7619,-0.7627,-0.7632,-0.7631,-0.7631,-0.7634,-0.7635,-0.7632,-0.7626,-0.7626,-0.7626,-0.7626,-0.7626,-0.7626,-0.7385,-0.74,-0.7412,-0.7435,-0.7449,-0.7467,-0.7477,-0.7491,-0.7506,-0.7529,-0.7544,-0.7557,-0.7576,-0.7598,-0.7615,-0.7621,-0.7628,-0.7625,-0.7632,-0.7633,-0.7634,-0.7635,-0.7632,-0.7626,-0.7626,-0.763,-0.763,-0.763]}]]